ELECTRON KICK STAGE R/B, 59590

Orbit data source: Space-Track

ELECTRON KICK STAGE R/B, 59590 is space debris in SSO originally from a launch on Tue, 23 Apr 2024 UTC launched from the Rocket Lab Launch Complex (RLLC). Debris objects in space refer to the collection of defunct objects orbiting the Earth. Examples of debris include non-operational satellites, rocket bodies, and fragments generated from explosions, collisions, or faulty payload assembly.

Loading next visibility...
Identifier
59590, 2024-077D
Orbit
SSO
Last TLE update
15 hours ago
Origin
Manufacturer
Rocket Lab
Mission
Spacecraft
Bus & Motor
KICK STAGE, CURIE
Mass
~50 kg wet, ~50 kg dry
Launch date (UTC)
2024-04-23 (1 year ago)
Launch vehicle
Unknown
Launch site
Rocket Lab Launch Complex (RLLC)
Object type
Payload
Rocket body
Debris
Shape & HBR
Unknown
Radar Cross Section
Medium (>0.1 m² and <1 m²)

Expand to show TLE details & history

TLE from 15 hours ago
0 ELECTRON KICK STAGE R/B
1 59590U 24077D   25169.48616548  .00002539  00000-0  25633-3 0  9994
2 59590  97.3410 205.4452 0357824 322.1379  35.5132 14.54427086 60963
Epoch: 2025-06-18T11:40Z
TLE epoch observation values (Epoch: 2025-06-18T11:40:04.697Z)
Latitude
-0.0001°
Longitude
123.45813°
Altitude
510.909 km
Speed
7.717 km/s
True Right ascension
13h 41m 46s
True Declination
0° 00' 00"
Sunlit
Object was in full shadow at epoch
Visualization orbit readout
Latitude
59.42358°
Longitude
-43.44845°
Altitude
958.235 km
Speed
7.254 km/s
Apparent Right ascension
02h 11m 51s
Apparent Declination
14° 28' 34"
Sunlit
Object is in daylight
Visualization observer readout
Local Sidereal Time
13:54:50
Azimuth
354.943° N
Elevation
-35.464°
Doppler factor
1
Orbital elements
Apogee altitude
961.84 km
Perigee altitude
454.703 km
Semi-major axis
7,086.408 km
Eccentricity
0.03578
Inclination
97.341°
RAAN
205.4452°
Arg. of periapsis
322.1379°
True anomaly
Unknown
Mean anomaly
35.5132°
Eccentric anomaly
Unknown
Mean motion
3.63835 °/min
Orbital period
98.95 mins
BSTAR
0.00025633
Loading maneuver chart data...
Loading SW <> Apogee altitude chart data...
Loading historical data...
Loading historical data...
Loading historical data...
Loading historical data...
Loading historical data...
Loading historical data...
Loading historical data...
Other satellites on launch #77 in the year 2024 (2024-04-23 UTC)

ELECTRON KICK STAGE R/B Visibility forecast

Observer location: undefined°, undefined°

Span
Click to sort rows by Start time (UTC) header in descending order
Start Az.
Max El. time (UTC)
Max El. Az.
Max El.
End time (UTC)
End Az.
11 mins2025-06-19 14:38:55.192Z24.181° NE2025-06-19 14:44:55.192Z106.719° ESE36.413°2025-06-19 14:49:55.192Z169.12° S
8 mins2025-06-19 16:18:55.192Z337.355° NNW2025-06-19 16:21:55.192Z298.42° NW25.297°2025-06-19 16:26:55.192Z239.078° WSW
6 mins2025-06-20 01:47:55.192Z115.018° SE2025-06-20 01:49:55.192Z68.048° E29.662°2025-06-20 01:53:55.192Z7.139° NNE
|